Year,Month,Day,Hour,Minute,Value (Times are PST for windspeed in km/hr)
2005,11,04,00,00,8.50
2005,11,04,00,01,5.50
2005,11,04,00,02,6.60
2005,11,04,00,03,13.10
2005,11,04,00,04,7.40
2005,11,04,00,05,7.00
2005,11,04,00,06,4.70
2005,11,04,00,07,7.60
2005,11,04,00,08,1.70
2005,11,04,00,09,5.00
2005,11,04,00,10,4.30
2005,11,04,00,11,7.10
2005,11,04,00,12,4.60
2005,11,04,00,13,7.00
2005,11,04,00,14,3.40
2005,11,04,00,15,8.70
2005,11,04,00,16,4.70
2005,11,04,00,17,3.40
2005,11,04,00,18,8.70
2005,11,04,00,19,5.30
2005,11,04,00,20,8.10
2005,11,04,00,21,4.20
2005,11,04,00,22,2.60
2005,11,04,00,23,2.80
2005,11,04,00,24,6.40
2005,11,04,00,25,5.40
2005,11,04,00,26,6.70
2005,11,04,00,27,6.90
2005,11,04,00,28,10.30
2005,11,04,00,29,7.00
2005,11,04,00,30,8.20
2005,11,04,00,31,2.50
2005,11,04,00,32,1.10
2005,11,04,00,33,10.70
2005,11,04,00,34,7.10
2005,11,04,00,35,10.10
2005,11,04,00,36,6.80
2005,11,04,00,37,7.70
2005,11,04,00,38,4.50
2005,11,04,00,39,5.80
2005,11,04,00,40,12.40
2005,11,04,00,41,7.60
2005,11,04,00,42,10.00
2005,11,04,00,43,6.50
2005,11,04,00,44,4.90
2005,11,04,00,45,3.80
2005,11,04,00,46,2.90
2005,11,04,00,47,5.30
2005,11,04,00,48,5.20
2005,11,04,00,49,3.90
2005,11,04,00,50,2.20
2005,11,04,00,51,5.40
2005,11,04,00,52,8.00
2005,11,04,00,53,5.40
2005,11,04,00,54,3.50
2005,11,04,00,55,3.30
2005,11,04,00,56,2.10
2005,11,04,00,57,8.00
2005,11,04,00,58,5.70
2005,11,04,00,59,7.90
2005,11,04,01,00,7.50
2005,11,04,01,01,8.10
2005,11,04,01,02,4.90
2005,11,04,01,03,9.40
2005,11,04,01,04,7.90
2005,11,04,01,05,7.20
2005,11,04,01,06,5.00
2005,11,04,01,07,10.10
2005,11,04,01,08,9.10
2005,11,04,01,09,13.10
2005,11,04,01,10,11.30
2005,11,04,01,11,8.00
2005,11,04,01,12,6.50
2005,11,04,01,13,5.80
2005,11,04,01,14,6.80
2005,11,04,01,15,5.70
2005,11,04,01,16,4.80
2005,11,04,01,17,10.10
2005,11,04,01,18,11.90
2005,11,04,01,19,10.20
2005,11,04,01,20,14.30
2005,11,04,01,21,15.40
2005,11,04,01,22,8.70
2005,11,04,01,23,7.50
2005,11,04,01,24,7.90
2005,11,04,01,25,9.10
2005,11,04,01,26,5.20
2005,11,04,01,27,10.40
2005,11,04,01,28,1.20
2005,11,04,01,29,2.40
2005,11,04,01,30,5.80
2005,11,04,01,31,6.00
2005,11,04,01,32,3.10
2005,11,04,01,33,4.00
2005,11,04,01,34,1.60
2005,11,04,01,35,0.90
2005,11,04,01,36,4.50
2005,11,04,01,37,5.80
2005,11,04,01,38,4.00
2005,11,04,01,39,5.30
2005,11,04,01,40,5.30
2005,11,04,01,41,8.00
2005,11,04,01,42,11.60
2005,11,04,01,43,13.80
2005,11,04,01,44,14.20
2005,11,04,01,45,12.60
2005,11,04,01,46,10.90
2005,11,04,01,47,16.10
2005,11,04,01,48,16.70
2005,11,04,01,49,14.10
2005,11,04,01,50,12.10
2005,11,04,01,51,8.30
2005,11,04,01,52,12.30
2005,11,04,01,53,13.00
2005,11,04,01,54,13.10
2005,11,04,01,55,15.70
2005,11,04,01,56,9.90
2005,11,04,01,57,12.70
2005,11,04,01,58,13.50
2005,11,04,01,59,8.40
2005,11,04,02,00,11.30
2005,11,04,02,01,13.50
2005,11,04,02,02,8.70
2005,11,04,02,03,12.30
2005,11,04,02,04,12.80
2005,11,04,02,05,8.50
2005,11,04,02,06,10.20
2005,11,04,02,07,10.00
2005,11,04,02,08,8.80
2005,11,04,02,09,5.70
2005,11,04,02,10,6.50
2005,11,04,02,11,10.00
2005,11,04,02,12,9.00
2005,11,04,02,13,8.80
2005,11,04,02,14,6.50
2005,11,04,02,15,7.20
2005,11,04,02,16,6.40
2005,11,04,02,17,9.40
2005,11,04,02,18,5.70
2005,11,04,02,19,7.90
2005,11,04,02,20,8.50
2005,11,04,02,21,7.80
2005,11,04,02,22,7.00
2005,11,04,02,23,5.20
2005,11,04,02,24,5.40
2005,11,04,02,25,3.50
2005,11,04,02,26,5.70
2005,11,04,02,27,7.30
2005,11,04,02,28,5.80
2005,11,04,02,29,6.80
2005,11,04,02,30,6.40
2005,11,04,02,31,8.40
2005,11,04,02,32,7.50
2005,11,04,02,33,6.90
2005,11,04,02,34,6.40
2005,11,04,02,35,8.80
2005,11,04,02,36,5.80
2005,11,04,02,37,5.50
2005,11,04,02,38,6.90
2005,11,04,02,39,8.30
2005,11,04,02,40,7.10
2005,11,04,02,41,6.20
2005,11,04,02,42,7.10
2005,11,04,02,43,5.90
2005,11,04,02,44,8.50
2005,11,04,02,45,4.00
2005,11,04,02,46,5.30
2005,11,04,02,47,4.70
2005,11,04,02,48,3.60
2005,11,04,02,49,1.10
2005,11,04,02,50,5.40
2005,11,04,02,51,5.20
2005,11,04,02,52,4.60
2005,11,04,02,53,6.60
2005,11,04,02,54,8.90
2005,11,04,02,55,5.80
2005,11,04,02,56,5.30
2005,11,04,02,57,2.50
2005,11,04,02,58,6.10
2005,11,04,02,59,1.30
2005,11,04,03,00,4.20
2005,11,04,03,01,3.60
2005,11,04,03,02,0.80
2005,11,04,03,03,2.70
2005,11,04,03,04,4.10
2005,11,04,03,05,2.30
2005,11,04,03,06,1.20
2005,11,04,03,07,0.60
2005,11,04,03,08,0.00
2005,11,04,03,09,0.20
2005,11,04,03,10,0.00
2005,11,04,03,11,4.00
2005,11,04,03,12,4.60
2005,11,04,03,13,1.40
2005,11,04,03,14,0.20
2005,11,04,03,15,0.10
2005,11,04,03,16,0.00
2005,11,04,03,17,0.00
2005,11,04,03,18,0.00
2005,11,04,03,19,0.30
2005,11,04,03,20,3.20
2005,11,04,03,21,1.90
2005,11,04,03,22,2.00
2005,11,04,03,23,1.70
2005,11,04,03,24,3.70
2005,11,04,03,25,3.20
2005,11,04,03,26,3.20
2005,11,04,03,27,1.10
2005,11,04,03,28,2.00
2005,11,04,03,29,0.70
2005,11,04,03,30,0.90
2005,11,04,03,31,0.00
2005,11,04,03,32,0.00
2005,11,04,03,33,0.00
2005,11,04,03,34,0.00
2005,11,04,03,35,0.10
2005,11,04,03,36,0.10
2005,11,04,03,37,0.00
2005,11,04,03,38,0.20
2005,11,04,03,39,0.00
2005,11,04,03,40,0.00
2005,11,04,03,41,0.00
2005,11,04,03,42,0.30
2005,11,04,03,43,0.80
2005,11,04,03,44,0.10
2005,11,04,03,45,0.60
2005,11,04,03,46,1.90
2005,11,04,03,47,2.40
2005,11,04,03,48,0.30
2005,11,04,03,49,0.60
2005,11,04,03,50,0.90
2005,11,04,03,51,0.00
2005,11,04,03,52,0.90
2005,11,04,03,53,0.20
2005,11,04,03,54,1.60
2005,11,04,03,55,1.40
2005,11,04,03,56,0.30
2005,11,04,03,57,0.30
2005,11,04,03,58,1.50
2005,11,04,03,59,4.30
2005,11,04,04,00,6.40
2005,11,04,04,01,5.00
2005,11,04,04,02,4.70
2005,11,04,04,03,3.50
2005,11,04,04,04,0.80
2005,11,04,04,05,0.00
2005,11,04,04,06,0.00
2005,11,04,04,07,0.00
2005,11,04,04,08,4.10
2005,11,04,04,09,5.60
2005,11,04,04,10,8.80
2005,11,04,04,11,10.40
2005,11,04,04,12,12.30
2005,11,04,04,13,7.90
2005,11,04,04,14,7.50
2005,11,04,04,15,17.40
2005,11,04,04,16,6.80
2005,11,04,04,17,3.90
2005,11,04,04,18,6.10
2005,11,04,04,19,13.10
2005,11,04,04,20,5.10
2005,11,04,04,21,10.90
2005,11,04,04,22,9.20
2005,11,04,04,23,2.60
2005,11,04,04,24,2.50
2005,11,04,04,25,6.10
2005,11,04,04,26,5.60
2005,11,04,04,27,0.90
2005,11,04,04,28,0.00
2005,11,04,04,29,2.30
2005,11,04,04,30,4.80
2005,11,04,04,31,5.90
2005,11,04,04,32,2.50
2005,11,04,04,33,6.00
2005,11,04,04,34,5.70
2005,11,04,04,35,4.40
2005,11,04,04,36,3.60
2005,11,04,04,37,6.00
2005,11,04,04,38,2.90
2005,11,04,04,39,1.30
2005,11,04,04,40,16.80
2005,11,04,04,41,8.30
2005,11,04,04,42,10.10
2005,11,04,04,43,9.20
2005,11,04,04,44,7.10
2005,11,04,04,45,7.50
2005,11,04,04,46,9.40
2005,11,04,04,47,7.90
2005,11,04,04,48,6.60
2005,11,04,04,49,6.90
2005,11,04,04,50,3.40
2005,11,04,04,51,6.50
2005,11,04,04,52,5.10
2005,11,04,04,53,4.20
2005,11,04,04,54,3.10
2005,11,04,04,55,4.00
2005,11,04,04,56,1.30
2005,11,04,04,57,1.40
2005,11,04,04,58,1.40
2005,11,04,04,59,2.60
2005,11,04,05,00,4.00
2005,11,04,05,01,3.20
2005,11,04,05,02,2.10
2005,11,04,05,03,4.30
2005,11,04,05,04,3.10
2005,11,04,05,05,0.60
2005,11,04,05,06,0.80
2005,11,04,05,07,3.00
2005,11,04,05,08,0.00
2005,11,04,05,09,0.10
2005,11,04,05,10,0.80
2005,11,04,05,11,0.50
2005,11,04,05,12,0.60
2005,11,04,05,13,1.60
2005,11,04,05,14,1.60
2005,11,04,05,15,0.70
2005,11,04,05,16,0.40
2005,11,04,05,17,0.00
2005,11,04,05,18,0.00
2005,11,04,05,19,0.30
2005,11,04,05,20,0.00
2005,11,04,05,21,0.00
2005,11,04,05,22,0.00
2005,11,04,05,23,0.00
2005,11,04,05,24,0.00
2005,11,04,05,25,0.40
2005,11,04,05,26,1.00
2005,11,04,05,27,0.00
2005,11,04,05,28,0.00
2005,11,04,05,29,0.30
2005,11,04,05,30,0.10
2005,11,04,05,31,0.00
2005,11,04,05,32,0.00
2005,11,04,05,33,0.00
2005,11,04,05,34,0.00
2005,11,04,05,35,0.60
2005,11,04,05,36,0.90
2005,11,04,05,37,1.50
2005,11,04,05,38,1.50
2005,11,04,05,39,3.10
2005,11,04,05,40,2.80
2005,11,04,05,41,2.70
2005,11,04,05,42,0.00
2005,11,04,05,43,0.10
2005,11,04,05,44,0.00
2005,11,04,05,45,0.00
2005,11,04,05,46,0.00
2005,11,04,05,47,0.90
2005,11,04,05,48,0.00
2005,11,04,05,49,0.00
2005,11,04,05,50,0.10
2005,11,04,05,51,0.00
2005,11,04,05,52,0.00
2005,11,04,05,53,0.00
2005,11,04,05,54,0.00
2005,11,04,05,55,0.00
2005,11,04,05,56,0.00
2005,11,04,05,57,0.00
2005,11,04,05,58,0.00
2005,11,04,05,59,0.00
2005,11,04,06,00,0.00
2005,11,04,06,01,0.00
2005,11,04,06,02,0.00
2005,11,04,06,03,0.00
2005,11,04,06,04,0.00
2005,11,04,06,05,0.00
2005,11,04,06,06,0.00
2005,11,04,06,07,0.00
2005,11,04,06,08,0.00
2005,11,04,06,09,0.00
2005,11,04,06,10,0.00
2005,11,04,06,11,0.00
2005,11,04,06,12,0.00
2005,11,04,06,13,0.00
2005,11,04,06,14,0.00
2005,11,04,06,15,0.00
2005,11,04,06,16,0.00
2005,11,04,06,17,0.00
2005,11,04,06,18,0.00
2005,11,04,06,19,0.00
2005,11,04,06,20,1.70
2005,11,04,06,21,2.10
2005,11,04,06,22,0.00
2005,11,04,06,23,0.00
2005,11,04,06,24,0.60
2005,11,04,06,25,2.00
2005,11,04,06,26,3.50
2005,11,04,06,27,2.00
2005,11,04,06,28,0.00
2005,11,04,06,29,0.20
2005,11,04,06,30,0.60
2005,11,04,06,31,0.00
2005,11,04,06,32,0.00
2005,11,04,06,33,0.00
2005,11,04,06,34,0.00
2005,11,04,06,35,0.10
2005,11,04,06,36,0.00
2005,11,04,06,37,0.10
2005,11,04,06,38,0.20
2005,11,04,06,39,0.20
2005,11,04,06,40,3.20
2005,11,04,06,41,0.40
2005,11,04,06,42,0.00
2005,11,04,06,43,0.10
2005,11,04,06,44,2.00
2005,11,04,06,45,2.40
2005,11,04,06,46,2.90
2005,11,04,06,47,2.70
2005,11,04,06,48,2.50
2005,11,04,06,49,1.90
2005,11,04,06,50,1.20
2005,11,04,06,51,1.60
2005,11,04,06,52,0.60
2005,11,04,06,53,0.50
2005,11,04,06,54,1.90
2005,11,04,06,55,1.00
2005,11,04,06,56,2.30
2005,11,04,06,57,0.60
2005,11,04,06,58,0.90
2005,11,04,06,59,2.70
2005,11,04,07,00,3.10
2005,11,04,07,01,2.50
2005,11,04,07,02,2.30
2005,11,04,07,03,3.20
2005,11,04,07,04,1.80
2005,11,04,07,05,3.10
2005,11,04,07,06,5.00
2005,11,04,07,07,4.80
2005,11,04,07,08,2.30
2005,11,04,07,09,6.80
2005,11,04,07,10,2.40
2005,11,04,07,11,1.60
2005,11,04,07,12,3.00
2005,11,04,07,13,2.80
2005,11,04,07,14,0.50
2005,11,04,07,15,1.50
2005,11,04,07,16,2.30
2005,11,04,07,17,1.60
2005,11,04,07,18,2.20
2005,11,04,07,19,4.90
2005,11,04,07,20,3.80
2005,11,04,07,21,4.90
2005,11,04,07,22,3.10
2005,11,04,07,23,3.60
2005,11,04,07,24,3.00
2005,11,04,07,25,6.10
2005,11,04,07,26,6.90
2005,11,04,07,27,5.40
2005,11,04,07,28,3.30
2005,11,04,07,29,3.90
2005,11,04,07,30,1.90
2005,11,04,07,31,3.50
2005,11,04,07,32,1.90
2005,11,04,07,33,3.70
2005,11,04,07,34,3.90
2005,11,04,07,35,4.80
2005,11,04,07,36,6.40
2005,11,04,07,37,6.40
2005,11,04,07,38,6.50
2005,11,04,07,39,8.10
2005,11,04,07,40,8.10
2005,11,04,07,41,6.10
2005,11,04,07,42,10.00
2005,11,04,07,43,3.80
2005,11,04,07,44,1.80
2005,11,04,07,45,1.80
2005,11,04,07,46,4.20
2005,11,04,07,47,6.20
2005,11,04,07,48,3.10
2005,11,04,07,49,3.10
2005,11,04,07,50,3.20
2005,11,04,07,51,4.70
2005,11,04,07,52,1.40
2005,11,04,07,53,3.90
2005,11,04,07,54,1.80
2005,11,04,07,55,5.30
2005,11,04,07,56,4.10
2005,11,04,07,57,2.70
2005,11,04,07,58,7.80
2005,11,04,07,59,3.60
2005,11,04,08,00,4.40
2005,11,04,08,01,0.40
2005,11,04,08,02,1.90
2005,11,04,08,03,4.30
2005,11,04,08,04,4.00
2005,11,04,08,05,4.10
2005,11,04,08,06,3.00
2005,11,04,08,07,3.50
2005,11,04,08,08,4.00
2005,11,04,08,09,4.50
2005,11,04,08,10,1.90
2005,11,04,08,11,0.90
2005,11,04,08,12,2.60
2005,11,04,08,13,6.30
2005,11,04,08,14,7.60
2005,11,04,08,15,5.70
2005,11,04,08,16,4.50
2005,11,04,08,17,2.00
2005,11,04,08,18,1.60
2005,11,04,08,19,0.40
2005,11,04,08,20,0.20
2005,11,04,08,21,1.90
2005,11,04,08,22,0.30
2005,11,04,08,23,0.00
2005,11,04,08,24,0.20
2005,11,04,08,25,0.50
2005,11,04,08,26,0.00
2005,11,04,08,27,0.20
2005,11,04,08,28,0.60
2005,11,04,08,29,0.00
2005,11,04,08,30,0.00
2005,11,04,08,31,0.00
2005,11,04,08,32,0.00
2005,11,04,08,33,0.00
2005,11,04,08,34,0.00
2005,11,04,08,35,0.00
2005,11,04,08,36,0.00
2005,11,04,08,37,0.00
2005,11,04,08,38,0.00
2005,11,04,08,39,0.00
2005,11,04,08,40,0.00
2005,11,04,08,41,0.00
2005,11,04,08,42,0.10
2005,11,04,08,43,0.20
2005,11,04,08,44,0.10
2005,11,04,08,45,0.10
2005,11,04,08,46,0.40
2005,11,04,08,47,1.70
2005,11,04,08,48,0.30
2005,11,04,08,49,0.10
2005,11,04,08,50,0.00
2005,11,04,08,51,0.00
2005,11,04,08,52,0.00
2005,11,04,08,53,0.00
2005,11,04,08,54,0.00
2005,11,04,08,55,0.00
2005,11,04,08,56,0.00
2005,11,04,08,57,0.00
2005,11,04,08,58,0.00
2005,11,04,08,59,0.00
2005,11,04,09,00,0.00
2005,11,04,09,01,0.20
2005,11,04,09,02,0.00
2005,11,04,09,03,0.00
2005,11,04,09,04,0.00
2005,11,04,09,05,0.00
2005,11,04,09,06,0.10
2005,11,04,09,07,0.00
2005,11,04,09,08,0.50
2005,11,04,09,09,0.00
2005,11,04,09,10,0.00
2005,11,04,09,11,0.00
2005,11,04,09,12,0.00
2005,11,04,09,13,0.00
2005,11,04,09,14,0.00
2005,11,04,09,15,0.00
2005,11,04,09,16,0.00
2005,11,04,09,17,0.00
2005,11,04,09,18,0.00
2005,11,04,09,19,0.00
2005,11,04,09,20,0.00
2005,11,04,09,21,0.00
2005,11,04,09,22,0.00
2005,11,04,09,23,0.00
2005,11,04,09,24,0.00
2005,11,04,09,25,0.00
2005,11,04,09,26,0.00
2005,11,04,09,27,1.80
2005,11,04,09,28,0.80
2005,11,04,09,29,0.00
2005,11,04,09,30,0.00
2005,11,04,09,31,0.00
2005,11,04,09,32,0.00
2005,11,04,09,33,0.00
2005,11,04,09,34,0.00
2005,11,04,09,35,0.00
2005,11,04,09,36,0.60
2005,11,04,09,37,2.40
2005,11,04,09,38,0.80
2005,11,04,09,39,0.00
2005,11,04,09,40,0.00
2005,11,04,09,41,0.10
2005,11,04,09,42,0.90
2005,11,04,09,43,4.60
2005,11,04,09,44,4.00
2005,11,04,09,45,0.70
2005,11,04,09,46,0.00
2005,11,04,09,47,0.00
2005,11,04,09,48,0.00
2005,11,04,09,49,0.60
2005,11,04,09,50,2.00
2005,11,04,09,51,0.70
2005,11,04,09,52,1.00
2005,11,04,09,53,0.00
2005,11,04,09,54,0.80
2005,11,04,09,55,0.30
2005,11,04,09,56,0.20
2005,11,04,09,57,0.10
2005,11,04,09,58,0.00
2005,11,04,09,59,0.00
2005,11,04,10,00,0.00
2005,11,04,10,01,0.10
2005,11,04,10,02,0.20
2005,11,04,10,03,0.00
2005,11,04,10,04,0.10
2005,11,04,10,05,2.70
2005,11,04,10,06,3.10
2005,11,04,10,07,1.90
2005,11,04,10,08,0.40
2005,11,04,10,09,0.60
2005,11,04,10,10,0.00
2005,11,04,10,11,0.30
2005,11,04,10,12,0.20
2005,11,04,10,13,0.10
2005,11,04,10,14,0.40
2005,11,04,10,15,0.00
2005,11,04,10,16,0.00
2005,11,04,10,17,0.20
2005,11,04,10,18,0.90
2005,11,04,10,19,1.90
2005,11,04,10,20,0.10
2005,11,04,10,21,0.00
2005,11,04,10,22,0.00
2005,11,04,10,23,0.10
2005,11,04,10,24,0.20
2005,11,04,10,25,1.10
2005,11,04,10,26,0.20
2005,11,04,10,27,0.10
2005,11,04,10,28,1.10
2005,11,04,10,29,0.30
2005,11,04,10,30,0.50
2005,11,04,10,31,0.00
2005,11,04,10,32,1.20
2005,11,04,10,33,1.10
2005,11,04,10,34,1.60
2005,11,04,10,35,1.60
2005,11,04,10,36,1.60
2005,11,04,10,37,1.60
2005,11,04,10,38,1.60
2005,11,04,10,39,7.30
2005,11,04,10,40,7.90
2005,11,04,10,41,6.50
2005,11,04,10,42,9.10
2005,11,04,10,43,7.60
2005,11,04,10,44,6.20
2005,11,04,10,45,10.80
2005,11,04,10,46,4.80
2005,11,04,10,47,4.80
2005,11,04,10,48,3.70
2005,11,04,10,49,3.50
2005,11,04,10,50,5.60
2005,11,04,10,51,2.40
2005,11,04,10,52,2.00
2005,11,04,10,53,2.10
2005,11,04,10,54,4.60
2005,11,04,10,55,4.90
2005,11,04,10,56,5.00
2005,11,04,10,57,7.10
2005,11,04,10,58,7.90
2005,11,04,10,59,8.20
2005,11,04,11,00,4.70
2005,11,04,11,01,4.40
2005,11,04,11,02,4.20
2005,11,04,11,03,2.30
2005,11,04,11,04,3.90
2005,11,04,11,05,3.00
2005,11,04,11,06,2.50
2005,11,04,11,07,2.40
2005,11,04,11,08,2.00
2005,11,04,11,09,2.90
2005,11,04,11,10,1.20
2005,11,04,11,11,1.50
2005,11,04,11,12,1.90
2005,11,04,11,13,0.60
2005,11,04,11,14,1.90
2005,11,04,11,15,5.30
2005,11,04,11,16,2.90
2005,11,04,11,17,3.80
2005,11,04,11,18,5.60
2005,11,04,11,19,6.80
2005,11,04,11,20,6.90
2005,11,04,11,21,3.90
2005,11,04,11,22,5.00
2005,11,04,11,23,6.30
2005,11,04,11,24,5.80
2005,11,04,11,25,7.10
2005,11,04,11,26,10.10
2005,11,04,11,27,7.60
2005,11,04,11,28,8.30
2005,11,04,11,29,9.60
2005,11,04,11,30,9.60
2005,11,04,11,31,9.60
2005,11,04,11,32,9.60
2005,11,04,11,33,9.60
2005,11,04,11,34,6.10
2005,11,04,11,35,7.00
2005,11,04,11,36,7.60
2005,11,04,11,37,6.70
2005,11,04,11,38,5.80
2005,11,04,11,39,7.10
2005,11,04,11,40,6.80
2005,11,04,11,41,10.80
2005,11,04,11,42,8.80
2005,11,04,11,43,8.90
2005,11,04,11,44,6.00
2005,11,04,11,45,1.60
2005,11,04,11,46,3.70
2005,11,04,11,47,8.60
2005,11,04,11,48,6.60
2005,11,04,11,49,2.00
2005,11,04,11,50,0.90
2005,11,04,11,51,3.50
2005,11,04,11,52,2.00
2005,11,04,11,53,7.10
2005,11,04,11,54,6.90
2005,11,04,11,55,4.70
2005,11,04,11,56,4.20
2005,11,04,11,57,5.50
2005,11,04,11,58,2.70
2005,11,04,11,59,7.00
2005,11,04,12,00,5.10
2005,11,04,12,01,4.10
2005,11,04,12,02,4.50
2005,11,04,12,03,6.60
2005,11,04,12,04,5.20
2005,11,04,12,05,3.50
2005,11,04,12,06,4.30
2005,11,04,12,07,7.10
2005,11,04,12,08,4.30
2005,11,04,12,09,1.70
2005,11,04,12,10,3.90
2005,11,04,12,11,1.60
2005,11,04,12,12,4.00
2005,11,04,12,13,6.80
2005,11,04,12,14,5.80
2005,11,04,12,15,4.50
2005,11,04,12,16,3.80
2005,11,04,12,17,2.20
2005,11,04,12,18,4.90
2005,11,04,12,19,4.60
2005,11,04,12,20,0.90
2005,11,04,12,21,1.10
2005,11,04,12,22,2.70
2005,11,04,12,23,2.50
2005,11,04,12,24,3.30
2005,11,04,12,25,2.50
2005,11,04,12,26,8.40
2005,11,04,12,27,13.20
2005,11,04,12,28,17.50
2005,11,04,12,29,18.50
2005,11,04,12,30,9.60
2005,11,04,12,31,10.30
2005,11,04,12,32,7.60
2005,11,04,12,33,11.50
2005,11,04,12,34,8.40
2005,11,04,12,35,6.60
2005,11,04,12,36,7.70
2005,11,04,12,37,10.70
2005,11,04,12,38,7.40
2005,11,04,12,39,6.20
2005,11,04,12,40,4.50
2005,11,04,12,41,5.30
2005,11,04,12,42,4.00
2005,11,04,12,43,2.20
2005,11,04,12,44,1.40
2005,11,04,12,45,0.00
2005,11,04,12,46,0.00
2005,11,04,12,47,0.00
2005,11,04,12,48,0.00
2005,11,04,12,49,0.00
2005,11,04,12,50,0.00
2005,11,04,12,51,0.00
2005,11,04,12,52,0.00
2005,11,04,12,53,0.00
2005,11,04,12,54,0.00
2005,11,04,12,55,4.00
2005,11,04,12,56,3.20
2005,11,04,12,57,2.30
2005,11,04,12,58,0.00
2005,11,04,12,59,0.20
2005,11,04,13,00,0.40
2005,11,04,13,01,0.10
2005,11,04,13,02,0.00
2005,11,04,13,03,0.00
2005,11,04,13,04,0.00
2005,11,04,13,05,1.10
2005,11,04,13,06,4.40
2005,11,04,13,07,6.50
2005,11,04,13,08,6.90
2005,11,04,13,09,7.50
2005,11,04,13,10,7.40
2005,11,04,13,11,5.10
2005,11,04,13,12,4.60
2005,11,04,13,13,8.70
2005,11,04,13,14,9.70
2005,11,04,13,15,11.30
2005,11,04,13,16,6.40
2005,11,04,13,17,5.00
2005,11,04,13,18,7.10
2005,11,04,13,19,1.90
2005,11,04,13,20,0.20
2005,11,04,13,21,4.40
2005,11,04,13,22,7.60
2005,11,04,13,23,1.40
2005,11,04,13,24,1.90
2005,11,04,13,25,4.20
2005,11,04,13,26,6.80
2005,11,04,13,27,1.30
2005,11,04,13,28,4.50
2005,11,04,13,29,0.60
2005,11,04,13,30,2.60
2005,11,04,13,31,2.60
2005,11,04,13,32,0.50
2005,11,04,13,33,0.30
2005,11,04,13,34,1.00
2005,11,04,13,35,0.20
2005,11,04,13,36,3.90
2005,11,04,13,37,1.90
2005,11,04,13,38,1.50
2005,11,04,13,39,1.20
2005,11,04,13,40,1.30
2005,11,04,13,41,0.10
2005,11,04,13,42,1.40
2005,11,04,13,43,3.50
2005,11,04,13,44,4.60
2005,11,04,13,45,0.10
2005,11,04,13,46,5.10
2005,11,04,13,47,3.00
2005,11,04,13,48,1.90
2005,11,04,13,49,3.90
2005,11,04,13,50,7.80
2005,11,04,13,51,7.30
2005,11,04,13,52,7.00
2005,11,04,13,53,6.10
2005,11,04,13,54,7.80
2005,11,04,13,55,7.20
2005,11,04,13,56,6.50
2005,11,04,13,57,2.20
2005,11,04,13,58,3.10
2005,11,04,13,59,7.40
2005,11,04,14,00,6.40
2005,11,04,14,01,3.70
2005,11,04,14,02,2.70
2005,11,04,14,03,4.20
2005,11,04,14,04,5.20
2005,11,04,14,05,4.00
2005,11,04,14,06,1.40
2005,11,04,14,07,5.60
2005,11,04,14,08,5.20
2005,11,04,14,09,5.00
2005,11,04,14,10,0.60
2005,11,04,14,11,1.90
2005,11,04,14,12,2.00
2005,11,04,14,13,4.60
2005,11,04,14,14,3.20
2005,11,04,14,15,3.20
2005,11,04,14,16,2.90
2005,11,04,14,17,1.30
2005,11,04,14,18,1.00
2005,11,04,14,19,2.90
2005,11,04,14,20,3.70
2005,11,04,14,21,4.30
2005,11,04,14,22,2.30
2005,11,04,14,23,4.30
2005,11,04,14,24,1.10
2005,11,04,14,25,0.00
2005,11,04,14,26,2.00
2005,11,04,14,27,1.10
2005,11,04,14,28,0.50
2005,11,04,14,29,1.00
2005,11,04,14,30,4.70
2005,11,04,14,31,1.10
2005,11,04,14,32,4.60
2005,11,04,14,33,5.20
2005,11,04,14,34,6.00
2005,11,04,14,35,5.30
2005,11,04,14,36,6.50
2005,11,04,14,37,8.60
2005,11,04,14,38,4.90
2005,11,04,14,39,4.70
2005,11,04,14,40,1.30
2005,11,04,14,41,4.90
2005,11,04,14,42,4.70
2005,11,04,14,43,5.50
2005,11,04,14,44,2.10
2005,11,04,14,45,3.70
2005,11,04,14,46,8.40
2005,11,04,14,47,4.20
2005,11,04,14,48,3.50
2005,11,04,14,49,6.20
2005,11,04,14,50,3.60
2005,11,04,14,51,3.90
2005,11,04,14,52,2.70
2005,11,04,14,53,9.70
2005,11,04,14,54,4.50
2005,11,04,14,55,6.40
2005,11,04,14,56,6.80
2005,11,04,14,57,5.70
2005,11,04,14,58,4.80
2005,11,04,14,59,3.10
2005,11,04,15,00,4.90
2005,11,04,15,01,6.00
2005,11,04,15,02,4.00
2005,11,04,15,03,4.80
2005,11,04,15,04,4.50
2005,11,04,15,05,6.40
2005,11,04,15,06,5.00
2005,11,04,15,07,5.10
2005,11,04,15,08,4.80
2005,11,04,15,09,10.90
2005,11,04,15,10,7.50
2005,11,04,15,11,4.20
2005,11,04,15,12,6.60
2005,11,04,15,13,4.80
2005,11,04,15,14,5.70
2005,11,04,15,15,4.90
2005,11,04,15,16,4.60
2005,11,04,15,17,7.90
2005,11,04,15,18,6.20
2005,11,04,15,19,2.90
2005,11,04,15,20,2.80
2005,11,04,15,21,3.00
2005,11,04,15,22,2.20
2005,11,04,15,23,7.20
2005,11,04,15,24,7.40
2005,11,04,15,25,7.60
2005,11,04,15,26,5.50
2005,11,04,15,27,4.30
2005,11,04,15,28,9.10
2005,11,04,15,29,7.30
2005,11,04,15,30,3.10
2005,11,04,15,31,4.70
2005,11,04,15,32,3.50
2005,11,04,15,33,4.10
2005,11,04,15,34,8.00
2005,11,04,15,35,8.00
2005,11,04,15,36,1.00
2005,11,04,15,37,4.70
2005,11,04,15,38,3.00
2005,11,04,15,39,1.50
2005,11,04,15,40,1.60
2005,11,04,15,41,4.30
2005,11,04,15,42,0.10
2005,11,04,15,43,4.20
2005,11,04,15,44,4.90
2005,11,04,15,45,8.70
2005,11,04,15,46,3.40
2005,11,04,15,47,1.40
2005,11,04,15,48,0.80
2005,11,04,15,49,5.10
2005,11,04,15,50,2.30
2005,11,04,15,51,0.70
2005,11,04,15,52,1.20
2005,11,04,15,53,8.10
2005,11,04,15,54,10.20
2005,11,04,15,55,7.70
2005,11,04,15,56,6.70
2005,11,04,15,57,9.30
2005,11,04,15,58,6.40
2005,11,04,15,59,9.30
2005,11,04,16,00,3.90
2005,11,04,16,01,3.60
2005,11,04,16,02,0.50
2005,11,04,16,03,1.60
2005,11,04,16,04,1.40
2005,11,04,16,05,1.90
2005,11,04,16,06,0.00
2005,11,04,16,07,0.00
2005,11,04,16,08,1.50
2005,11,04,16,09,2.40
2005,11,04,16,10,5.40
2005,11,04,16,11,1.10
2005,11,04,16,12,0.80
2005,11,04,16,13,1.50
2005,11,04,16,14,3.70
2005,11,04,16,15,1.50
2005,11,04,16,16,1.50
2005,11,04,16,17,2.80
2005,11,04,16,18,2.40
2005,11,04,16,19,0.30
2005,11,04,16,20,2.20
2005,11,04,16,21,1.60
2005,11,04,16,22,3.40
2005,11,04,16,23,7.40
2005,11,04,16,24,3.00
2005,11,04,16,25,4.10
2005,11,04,16,26,0.60
2005,11,04,16,27,0.10
2005,11,04,16,28,3.20
2005,11,04,16,29,2.00
2005,11,04,16,30,3.60
2005,11,04,16,31,3.10
2005,11,04,16,32,1.60
2005,11,04,16,33,5.10
2005,11,04,16,34,2.60
2005,11,04,16,35,2.50
2005,11,04,16,36,5.00
2005,11,04,16,37,1.00
2005,11,04,16,38,0.40
2005,11,04,16,39,1.60
2005,11,04,16,40,2.10
2005,11,04,16,41,0.80
2005,11,04,16,42,1.50
2005,11,04,16,43,0.80
2005,11,04,16,44,3.20
2005,11,04,16,45,2.30
2005,11,04,16,46,1.40
2005,11,04,16,47,0.60
2005,11,04,16,48,0.00
2005,11,04,16,49,0.00
2005,11,04,16,50,0.20
2005,11,04,16,51,1.40
2005,11,04,16,52,3.20
2005,11,04,16,53,1.10
2005,11,04,16,54,1.80
2005,11,04,16,55,3.10
2005,11,04,16,56,1.00
2005,11,04,16,57,1.10
2005,11,04,16,58,0.60
2005,11,04,16,59,0.30
2005,11,04,17,00,1.20
2005,11,04,17,01,3.10
2005,11,04,17,02,0.50
2005,11,04,17,03,5.10
2005,11,04,17,04,4.50
2005,11,04,17,05,0.30
2005,11,04,17,06,0.70
2005,11,04,17,07,0.30
2005,11,04,17,08,0.30
2005,11,04,17,09,2.90
2005,11,04,17,10,4.70
2005,11,04,17,11,0.90
2005,11,04,17,12,3.50
2005,11,04,17,13,1.60
2005,11,04,17,14,0.60
2005,11,04,17,15,1.00
2005,11,04,17,16,1.60
2005,11,04,17,17,1.70
2005,11,04,17,18,0.20
2005,11,04,17,19,2.90
2005,11,04,17,20,3.70
2005,11,04,17,21,1.80
2005,11,04,17,22,0.30
2005,11,04,17,23,0.20
2005,11,04,17,24,3.60
2005,11,04,17,25,2.00
2005,11,04,17,26,1.40
2005,11,04,17,27,0.90
2005,11,04,17,28,1.40
2005,11,04,17,29,0.60
2005,11,04,17,30,3.40
2005,11,04,17,31,3.70
2005,11,04,17,32,6.30
2005,11,04,17,33,1.40
2005,11,04,17,34,2.30
2005,11,04,17,35,1.60
2005,11,04,17,36,0.00
2005,11,04,17,37,0.00
2005,11,04,17,38,0.30
2005,11,04,17,39,0.60
2005,11,04,17,40,0.00
2005,11,04,17,41,0.10
2005,11,04,17,42,3.90
2005,11,04,17,43,1.40
2005,11,04,17,44,1.10
2005,11,04,17,45,0.00
2005,11,04,17,46,0.20
2005,11,04,17,47,0.40
2005,11,04,17,48,1.30
2005,11,04,17,49,0.10
2005,11,04,17,50,0.10
2005,11,04,17,51,4.20
2005,11,04,17,52,3.00
2005,11,04,17,53,0.30
2005,11,04,17,54,1.40
2005,11,04,17,55,0.00
2005,11,04,17,56,0.00
2005,11,04,17,57,0.50
2005,11,04,17,58,0.10
2005,11,04,17,59,1.50
2005,11,04,18,00,1.50
2005,11,04,18,01,0.70
2005,11,04,18,02,1.70
2005,11,04,18,03,0.30
2005,11,04,18,04,1.80